This demonstration page uses our WeatherBlox Daily Observations layout. Learn more.

Left ArrowRight Arrow

39.51506, -84.39828

Hourly Observations for July 16, 2015

Temp ( °F °C ) Dew Point ( °F °C ) Humidity (%) Winds ( mph kmh ) Pressure ( in mb ) Visibility ( mi km ) Precip ( " mm )
12:15 am 00:15 Clear 64 18 60 15.5 85 85 ENE 5 7 30.03 1017 7 11 N/A
12:35 am 00:35 Clear 64 18 60 15.6 86 86 E 3 6 30.03 1017 10 16 N/A
12:55 am 00:55 Clear 64 17.7 60 15.4 86 86 N N/A 30.03 1017 7 11 N/A
1:15 am 01:15 Clear 63 17 59 14.8 87 87 N N/A 30.03 1017 7 11 N/A
1:35 am 01:35 Clear 63 17.1 58 14.7 86 86 N N/A 30.03 1017 10 16 N/A
1:55 am 01:55 Clear 62 16.6 58 14.5 88 88 N 3 6 30.03 1017 7 11 N/A
2:15 am 02:15 Clear 62 16.6 58 14.5 88 88 N 3 6 30.03 1017 10 16 N/A
2:35 am 02:35 Clear 61 16.2 57 13.9 86 86 N 3 6 30.03 1017 10 16 N/A
2:55 am 02:55 Clear 61 16 56 13.5 85 85 N 5 7 30.03 1017 10 16 N/A
3:15 am 03:15 Clear 61 16 56 13.5 85 85 NNE 3 6 30.03 1017 10 16 N/A
3:35 am 03:35 Clear 60 15.8 56 13.6 87 87 N N/A 30.00 1016 10 16 N/A
3:55 am 03:55 Clear 60 15.3 56 13.1 87 87 N N/A 30.03 1017 10 16 N/A
4:15 am 04:15 Clear 60 15.8 56 13.5 86 86 N 3 6 30.03 1017 10 16 N/A
4:35 am 04:35 Clear 60 15.3 55 13 86 86 N N/A 30.06 1018 10 16 N/A
4:55 am 04:55 Clear 60 15.3 56 13.1 87 87 N N/A 30.06 1018 10 16 N/A
5:15 am 05:15 Clear 60 15.3 56 13.1 87 87 ENE 3 6 30.06 1018 10 16 N/A
5:35 am 05:35 Clear 60 15.3 56 13.2 87 87 N 3 6 30.06 1018 10 16 N/A
5:55 am 05:55 Clear 60 15.3 56 13.2 87 87 N 3 6 30.06 1018 10 16 N/A
6:15 am 06:15 Clear 60 15.3 55 13 86 86 N 3 6 30.06 1018 10 16 N/A
6:35 am 06:35 Sunny 60 15.3 55 13 86 86 N N/A 30.06 1018 10 16 N/A
6:55 am 06:55 Sunny 60 15.3 55 13 86 86 N N/A 30.06 1018 10 16 N/A
7:15 am 07:15 Sunny 60 15.3 55 12.8 85 85 N 3 6 30.06 1018 10 16 N/A
7:35 am 07:35 Sunny 61 16 56 13.2 84 84 N N/A 30.09 1019 10 16 N/A
7:55 am 07:55 Sunny 62 16.6 56 13.1 80 80 N N/A 30.03 1017 10 16 N/A
8:15 am 08:15 Sunny 63 17.2 55 12.9 76 76 N N/A 30.06 1018 10 16 N/A
8:35 am 08:35 Sunny 64 18 57 13.7 76 76 N N/A 30.06 1018 10 16 N/A
8:55 am 08:55 Sunny 67 19.5 58 14.6 73 73 N N/A 30.06 1018 10 16 N/A
9:15 am 09:15 Sunny 69 20.8 60 15.6 72 72 NE 3 6 30.06 1018 10 16 N/A
9:35 am 09:35 Sunny 69 20.8 59 14.8 69 69 NNE 3 6 30.06 1018 10 16 N/A
9:55 am 09:55 Sunny 69 20.8 57 14 65 65 N N/A 30.06 1018 10 16 N/A
10:15 am 10:15 Sunny 72 22.4 58 14.5 61 61 E 5 7 30.06 1018 10 16 N/A
10:35 am 10:35 Sunny 74 23.6 60 15.4 60 60 S 3 6 30.06 1018 10 16 N/A
10:55 am 10:55 Sunny 74 23.6 60 15.3 60 60 N N/A 30.06 1018 10 16 N/A
11:15 am 11:15 Sunny 74 23.6 60 15.7 61 61 N N/A 30.06 1018 10 16 N/A
11:35 am 11:35 Sunny 74 23.6 60 15.5 61 61 N N/A 30.06 1018 10 16 N/A
11:55 am 11:55 Sunny 74 23.6 59 15.2 59 59 SSE 3 6 30.06 1018 10 16 N/A
12:15 pm 12:15 Sunny 74 23.6 59 15 59 59 SW 3 6 30.06 1018 10 16 N/A
12:35 pm 12:35 Sunny 77 25.1 61 16.1 57 57 N N/A 30.06 1018 10 16 N/A
12:55 pm 12:55 Sunny 77 25.1 59 15 54 54 N N/A 30.06 1018 10 16 N/A
1:15 pm 13:15 Sunny 79 26.3 60 15.3 51 51 ENE 5 7 30.06 1018 10 16 N/A
1:35 pm 13:35 Sunny 80 26.5 60 15.8 52 52 S 3 6 30.03 1017 10 16 N/A
1:55 pm 13:55 Sunny 78 25.6 58 14.3 50 50 SE 3 6 30.03 1017 10 16 N/A
2:15 pm 14:15 Sunny 80 26.5 59 14.9 49 49 N N/A 30.03 1017 10 16 N/A
2:35 pm 14:35 Sunny 80 26.5 60 15.4 51 51 NNE 6 9 30.03 1017 10 16 N/A
2:55 pm 14:55 Sunny 80 26.9 59 15.1 48 48 N N/A 30.03 1017 10 16 N/A
3:15 pm 15:15 Sunny 80 26.5 58 14.2 47 47 N N/A 30.03 1017 10 16 N/A
3:35 pm 15:35 Sunny 80 26.5 60 15.5 51 51 NNE 3 6 30.03 1017 10 16 N/A
3:55 pm 15:55 Sunny 80 26.6 60 15.8 52 52 NE 6 9 30.00 1016 10 16 N/A
4:15 pm 16:15 Sunny 80 26.5 60 15.5 51 51 ENE 8 13 30.00 1016 10 16 N/A
4:35 pm 16:35 Sunny 81 27.2 59 15.1 48 48 E 7 11 30.00 1016 10 16 N/A
4:55 pm 16:55 Sunny 81 27.1 61 16 51 51 E 6 9 30.00 1016 10 16 N/A
5:15 pm 17:15 Sunny 82 28 61 15.9 48 48 E 8 13 30.00 1016 10 16 N/A
5:35 pm 17:35 Sunny 82 28 57 13.9 42 42 SSW 3 6 29.94 1014 10 16 N/A
5:55 pm 17:55 Sunny 82 27.8 58 14.7 45 45 N N/A 29.94 1014 10 16 N/A
6:15 pm 18:15 Sunny 82 28 58 14.7 44 44 S 5 7 29.94 1014 10 16 N/A
6:35 pm 18:35 Sunny 81 27.2 58 14.6 46 46 SE 8 13 29.97 1015 10 16 N/A
6:55 pm 18:55 Sunny 81 27.2 59 15.2 48 48 ESE 6 9 29.97 1015 10 16 N/A
7:15 pm 19:15 Sunny 80 26.5 59 15.2 50 50 ESE 6 9 29.97 1015 10 16 N/A
7:35 pm 19:35 Sunny 81 27.2 61 16.1 51 51 SE 6 9 29.94 1014 10 16 N/A
7:55 pm 19:55 Sunny 80 26.9 60 15.7 50 50 SE 8 13 29.94 1014 10 16 N/A
8:15 pm 20:15 Sunny 80 26.5 60 15.5 51 51 SE 8 13 29.94 1014 10 16 N/A
8:35 pm 20:35 Sunny 80 26.5 62 16.6 55 55 SSE 7 11 29.94 1014 10 16 N/A
8:55 pm 20:55 Sunny 80 26.4 63 17.3 57 57 SSE 5 7 29.94 1014 10 16 N/A
9:15 pm 21:15 Clear 77 25.1 62 16.5 59 59 SSE 5 7 29.94 1014 10 16 N/A
9:35 pm 21:35 Clear 77 25.1 62 16.9 60 60 SSE 3 6 29.94 1014 10 16 N/A
9:55 pm 21:55 Clear 74 23.6 65 18.4 73 73 N N/A 29.94 1014 10 16 N/A
10:15 pm 22:15 Clear 72 22.3 67 19.2 83 83 N N/A 29.94 1014 10 16 N/A
10:35 pm 22:35 Clear 69 20.8 65 18.1 85 85 N N/A 29.94 1014 10 16 N/A
10:55 pm 22:55 Clear 69 20.8 65 18.2 85 85 N N/A 29.97 1015 10 16 N/A
11:15 pm 23:15 Clear 69 20.8 65 18.2 85 85 N N/A 29.97 1015 10 16 N/A
11:35 pm 23:35 Clear 69 20.8 65 18.2 85 85 N N/A 29.94 1014 10 16 N/A
11:55 pm 23:55 Clear 72 22.2 66 19.1 83 83 N N/A 29.94 1014 10 16 N/A

Powered by AerisWeather